Regional Weather Roundup
Issued by NWS

Home | Current Version | Previous Version | Text Only | Print | Product List | Glossary Off
Versions: 1 2 3 4 5 6 7 8 9 10 11 12 13 14 15 16 17 18 19 20 21 22 23 24 25 26 27 28 29 30 31 32 33 34 35 36 37 38 39 40 41 42 43 44 45 46 47 48 49 50

000
ASUS43 KDTX 281501
RWRMI
MICHIGAN HOURLY REGIONAL WEATHER ROUNDUP
NATIONAL WEATHER SERVICE DETROIT/PONTIAC MI
1100 AM EDT WED SEP 28 2016

NOTE: "FAIR" INDICATES FEW OR NO CLOUDS BELOW 12,000 FEET WITH NO
SIGNIFICANT WEATHER AND/OR OBSTRUCTION TO VISIBILITY.

MIZ047>049-052>055-059>063-066>070-074>076-081>083-281600-
SOUTHEAST LOWER MICHIGAN

CITY           SKY/WX    TMP DP  RH WIND       PRES   REMARKS
ADRIAN         CLOUDY    57  50  77 E13       29.87F
ALMA           CLOUDY    59  51  75 N9G16     29.93S
ANN ARBOR      CLOUDY    56  49  77 NE7       29.89R
BAD AXE        SUNNY     64  51  62 NE12      29.95S
CARO           SUNNY     64  49  56 NE7       29.92S
DETROIT CITY   LGT RAIN  60  51  72 SE7       29.91R
DETROIT        LGT RAIN  58  53  84 CALM      29.89F
FLINT          PTSUNNY   60  49  66 E6        29.92R
GROSSE ILE     LGT RAIN  58  51  79 CALM      29.89S
HILLSDALE      CLOUDY    57  46  67 E7        29.86S
HOWELL         CLOUDY    58  49  72 E8        29.91R

CITY           SKY/WX    TMP DP  RH WIND       PRES   REMARKS
JACKSON        PTSUNNY   58  49  72 E8        29.88R
LAMBERTVILLE   RAIN      55  51  87 NE7       29.87S
LANSING        CLOUDY    59  46  62 NE14      29.90R
LAPEER         FAIR      60  49  67 E7        29.91S
MASON          MOSUNNY   60  48  64 E8        29.90R
MONROE         LGT RAIN  55  54  97 NW7       29.87F
MT. CLEMENS    CLOUDY    61  55  82 S12G21    29.90R
PONTIAC        CLOUDY    57  48  72 S6        29.91R
PORT HURON     MOSUNNY   61  54  77 SE3       29.93R
TRI CITIES     MOSUNNY   62  53  72 NE16G23   29.94R
MIDLAND        CLOUDY    62  50  65 NE13      29.94R
TROY           LGT RAIN  60  47  63 NW3       29.91F
SAGINAW HB     SUNNY     63  46  55 NE12      29.92S
$$
MIZ043>046-050>051-056>058-064>065-071>073-077>080-281600-
SOUTHWEST LOWER MICHIGAN

CITY           SKY/WX    TMP DP  RH WIND       PRES   REMARKS
BATTLE CREEK   CLOUDY    56  47  71 NE10      29.86R
BENTON HARBOR  CLOUDY    54  50  86 VRB5      29.85R
BIG RAPIDS     MOSUNNY   55  51  86 E8        29.95R
COLDWATER      PTSUNNY   60  49  67 SE7       29.85R
FREMONT        FAIR      55  51  88 E8        29.91R
HOLLAND        CLOUDY    54  49  83 NE8       29.88R
GRAND RAPIDS   CLOUDY    53  48  83 NE10      29.90R
IONIA          PTSUNNY   54  48  78 NE9       29.89S
KALAMAZOO      CLOUDY    55  44  66 E6        29.86R
LUDINGTON      CLOUDY    56  53  91 E6        29.92R
MARSHALL       CLOUDY    56  48  74 E5        29.86R
MOUNT PLEASANT CLOUDY    57  52  82 NE5       29.95R
MUSKEGON       CLOUDY    55  51  86 NE8       29.90R
SOUTH HAVEN    CLOUDY    54  52  93 NE6       29.86R
$$
MIZ016>042-281600-
NORTHERN LOWER MICHIGAN

CITY           SKY/WX    TMP DP  RH WIND       PRES   REMARKS
ALPENA         MOSUNNY   61  52  72 E5        30.02R
BEAVER ISLAND  SUNNY     58  52  79 E8        30.01R
BELLAIRE       MOSUNNY   57  51  81 CALM      30.00R
CADILLAC       MOSUNNY   52  48  87 E8        29.97R
CHARLEVOIX     CLOUDY    56  51  83 E12       30.03R
FRANKFORT      PTSUNNY   57  50  78 E6        29.95R
GAYLORD        SUNNY     55  48  77 NE5       30.01R
GRAYLING       PTSUNNY   56  51  85 NE6       30.00R
HARBOR SPRINGS CLOUDY    56  52  85 E9        30.01R
HOUGHTON LAKE  SUNNY     57  50  77 E8        29.99R
MANISTEE       MOSUNNY   57  51  80 NE7       29.94R
OSCODA         SUNNY     62  52  71 N6        29.98R
PELLSTON       CLOUDY    57  51  80 VRB3      30.02R
ROGERS CITY    CLOUDY    59  52  75 CALM      30.03R
TRAVERSE CITY  PTSUNNY   58  49  72 E5        29.97R
$$
MIZ007>008-015-281600-
EASTERN UPPER MICHIGAN

CITY           SKY/WX    TMP DP  RH WIND       PRES   REMARKS
KINROSS        CLOUDY    56  54  93 NE12      30.04R
MACKINAC ISLAN CLOUDY    58  56  96 E3        30.02R
NEWBERRY       CLOUDY    56  55  97 NE6       30.04R
S. S. MARIE    CLOUDY    59  54  83 E5        30.04R
MUNISING         N/A     59  54  83 NE7       30.05R
$$
MIZ004>006-011>014-085-281600-
CENTRAL UPPER MICHIGAN

CITY           SKY/WX    TMP DP  RH WIND       PRES   REMARKS
MANISTIQUE     MOSUNNY   58  54  86 NE7       30.03R
ESCANABA       CLOUDY    57  52  83 NE9       30.02R
MENOMINEE      MOSUNNY   55  52  89 NE7       29.99R
SAWYER-GWINN   MOSUNNY   55  48  76 NE13      30.05
$$
MIZ001>003-009>011-084-281600-
WESTERN UPPER MICHIGAN

CITY           SKY/WX    TMP DP  RH WIND       PRES   REMARKS
IRON MOUNTAIN  CLOUDY    54  48  80 N12       30.03R
HOUGHTON       CLOUDY    55  52  89 E7        30.09R FOG
COPPER HARBOR    N/A     58  52  80 SE10G22   30.10R
IRONWOOD       CLOUDY    56  51  84 VRB7G16   30.10R
$$

ABBREVIATIONS USED IN REMARKS
   TC - TEMPERATURE IN CELSIUS
  WCI - WIND CHILL INDEX
   HX - HEAT INDEX
  VSB - VISIBILITY





USA.gov is the U.S. government's official web portal to all federal, state and local government web resources and services.